This is the latest recevied weather packets stored in our database for station/object W2SRH. If no packets are shown the sender has not sent any weather packets the latest 10 day(s).
| Time | Temp. | Humidity | Pressure | Rain* | Wind** | Luminosity | Snow |
|---|---|---|---|---|---|---|---|
| 1777628948 | 6.67° C | 81% | 1004.8 hPa | 0 mm | 1.34 m/s, 301° | - | - |
| 1777628346 | 6.67° C | 81% | 1004.7 hPa | 0 mm | 0.89 m/s, 316° | - | - |
| 1777627746 | 6.67° C | 81% | 1004.5 hPa | 0 mm | 0.89 m/s, 282° | - | - |
| 1777627145 | 7.22° C | 81% | 1004.5 hPa | 0 mm | 1.34 m/s, 299° | - | - |
| 1777626546 | 7.22° C | 82% | 1004.4 hPa | 0 mm | 1.34 m/s, 304° | - | - |
| 1777626342 | 7.22° C | 83% | 1004.4 hPa | 0 mm | 1.34 m/s, 302° | - | - |
| 1777625943 | 7.22° C | 83% | 1004.4 hPa | 0 mm | 1.34 m/s, 302° | - | - |
| 1777625796 | 7.22° C | 83% | 1004.3 hPa | 0 mm | 0.89 m/s, 304° | - | - |
| 1777625343 | 7.22° C | 84% | 1004.4 hPa | 0 mm | 1.79 m/s, 305° | - | - |
| 1777624745 | 7.22° C | 83% | 1004.3 hPa | 0 mm | 0.89 m/s, 304° | - | - |
| 1777624425 | 7.22° C | 83% | 1004.1 hPa | 0 mm | 0.89 m/s, 305° | - | - |
| 1777624143 | 7.22° C | 84% | 1004.2 hPa | 0 mm | 1.34 m/s, 294° | - | - |
| 1777623546 | 7.22° C | 83% | 1004.2 hPa | 0 mm | 1.34 m/s, 295° | - | - |
| 1777622943 | 7.22° C | 83% | 1004.1 hPa | 0 mm | 0.89 m/s, 305° | - | - |
| 1777622512 | 7.78° C | 81% | 1003.8 hPa | 0 mm | 1.34 m/s, 308° | - | - |
| 1777622343 | 7.78° C | 82% | 1004 hPa | 0 mm | 0.89 m/s, 316° | - | - |
| 1777621743 | 7.78° C | 81% | 1003.8 hPa | 0 mm | 0.89 m/s, 317° | - | - |
| 1777621144 | 7.78° C | 81% | 1003.8 hPa | 0 mm | 1.34 m/s, 308° | - | - |
| 1777620593 | 7.78° C | 80% | 1003.8 hPa | 0 mm | 0.45 m/s, 316° | - | - |
| 1777620577 | 8.33° C | 78% | 1003.8 hPa | 0 mm | 0.89 m/s, 306° | - | - |
| 1777620544 | 7.78° C | 81% | 1003.8 hPa | 0 mm | 0.45 m/s, 310° | - | - |
| 1777619944 | 7.78° C | 81% | 1003.7 hPa | 0 mm | 0.45 m/s, 306° | - | - |
| 1777619344 | 7.78° C | 80% | 1003.8 hPa | 0 mm | 0.45 m/s, 316° | - | - |
| 1777618744 | 8.33° C | 78% | 1003.8 hPa | 0 mm | 0.89 m/s, 306° | - | - |
| 1777618144 | 8.33° C | 77% | 1003.7 hPa | 0 mm | 0.89 m/s, 304° | - | - |
* Rain latest hour (hover to see other rain measurements)
** Current wind speed in m/s (hover to see current wind gust speed)